Погода в Окснарде

США     34°11′32″N   119°10′42″W
темп.,
°C
ветер,
м/с
пор.,
м/с
влажн.,
%
обл.,
%
осадки,
мм/ч
давл.,
гПа
погр.,
м
22 сентября, ср
ср2223:00+20з34720 0.0 101863
02:00+20з33740 0.0 101845
05:00+20з22760 0.0 101835
08:00+19з23770 0.0 101860
11:00+21зюз33685 0.0 1018118
14:00+22з56649 0.0 1016166
17:00+21з68660 0.0 1014167
20:00+20з34730 0.0 1015116
23 сентября, чт
чт2323:00+20зюз227476 0.0 101463
02:00+19зюз227531 0.0 101366
05:00+18зюз23760 0.0 101274
08:00+18зюз22750 0.0 101293
11:00+19зюз437456 0.0 1013169
14:00+19зюз3370100 0.0 1011183
17:00+20зюз336259 0.0 1010152
20:00+19з3373100 0.0 1011129
24 сентября, пт
пт2423:00+18зюз22790 0.0 1012112
02:00+17юз11815 0.0 1013110
05:00+17ююв11791 0.0 101269
08:00+18ю11724 0.0 101369
11:00+20ююз32704 0.0 1014243
14:00+19юз337548 0.0 1014246
17:00+18юз327377 0.0 1012185
20:00+18зюз11733 0.0 1013127
25 сентября, сб
сб2523:00+18ю22735 0.0 1015115
02:00+18з11768 0.0 101472
05:00+18зсз11750 0.0 101466
08:00+18з11730 0.0 101588
11:00+20зюз32660 0.0 1016213
14:00+19зюз43714 0.0 1015228
17:00+19з55700 0.0 1014224
20:00+19з34760 0.0 1014173
26 сентября, вс
вс2623:00+18з22810 0.0 1015152
02:00+18з22842 0.0 1015158
05:00+17зюз22841 0.0 1014146
08:00+18зюз22800 0.0 1016167
11:00+19юз32750 0.0 1016254
14:00+18зюз347846 0.0 1015236
17:00+19з45712 0.0 1014275
20:00+18з45800 0.0 1015236